Find Starlink 37183

NORAD ID: 68349 Int'l Des: 2026-059 Owner: SPXS Country: US Constellation: starlink operational
LEOCIRCULAR

Live-Position

3D-Globus wird geladen...

Über Starlink 37183

Beschreibung wird geladen...

Nächste Überflüge

Passes for default location (London). Set your location on the main map for personalized predictions.

Höhenverlauf

Loading altitude history...

Zweizeiliger Elementsatz

1 68349U 26059AE 26127.23042354 .00012711 00000-0 44049-3 0 9999
2 68349 53.1591 75.9747 0001125 90.9850 269.1280 15.30203821 7140
Epoch: 7. Mai 2026 • Age: 10 hours

Aktueller Status

Höhe 477.1 km
Geschwindigkeit 7.63 km/s
Subsatellitenpunkt 34.50°N, 12.49°E
Startdatum 22. März 2026
Alter 0.1 years
Typ internet

Technische Details

Klassifizierung Payload
Masse 575.00 kg
Trockenmasse 530.00 kg
Gesamtmasse 575.00 kg
Länge 0.30 m
Durchmesser 4.10 m
Spannweite 29.00 m
Form Box + pan
Hersteller SPXS
Bus-Typ Starlink V2MO
Phasenstatus In Orbit
Besitzer/Staat SPXS/US

Most Searched